THORAD AGENA D DEB, 4970

Orbit data source: Space-Track

THORAD AGENA D DEB, 4970 is space debris in SSO originally from a launch on Wed, 08 Apr 1970 UTC launched from the Air Force Western Test Range (AFWTR). Debris objects in space refer to the collection of defunct objects orbiting the Earth. Examples of debris include non-operational satellites, rocket bodies, and fragments generated from explosions, collisions, or faulty payload assembly.

Loading next visibility...
Identifier
4970, 1970-025GQ
Orbit
SSO
Country
Flag of USUS
Related business
Manufacturer
Unknown
Mission
Spacecraft
Bus & Motor
Unknown
Mass
Unknown
Launch date (UTC)
1970-04-08 (56 years ago)
Launch vehicle
Unknown
Launch site
Air Force Western Test Range (AFWTR)
Object type
Payload
Rocket body
Debris
Shape & HBR
Unknown shape, 0.1 m
Radar Cross Section
Small (<0.1 m²)

Expand to show TLE details & history
Last TLE update: 11 hours ago

TLE from 11 hours ago
0 THORAD AGENA D DEB
1 04970U 70025GQ  26122.82627633  .00000407  00000-0  60634-3 0  9997
2 04970  99.9516  86.9915 0037076 344.8712  83.0102 13.59892922768398
Epoch: 2026-05-02T19:49Z
TLE epoch observation values (Epoch: 2026-05-02T19:49:50.274Z)
Latitude
66.3153°
Longitude
-94.65527°
Altitude
1,044.212 km
Speed
7.337 km/s
True Right ascension
04h 14m 10s
True Declination
66° 11' 36"
Sunlit
Object was in daylight at epoch
Visualization orbit readout
Latitude
Unknown
Longitude
Unknown
Altitude
Unknown
Speed
Unknown
Apparent Right ascension
Unknown
Apparent Declination
Unknown
Sunlit
N/A
Visualization observer readout
Local Sidereal Time
14:42:52
Azimuth
Unknown
Elevation
Unknown
Doppler factor
Unknown
Orbital elements
Apogee altitude
1,060.861 km
Perigee altitude
1,005.904 km
Semi-major axis
7,411.52 km
Eccentricity
0.00371
Inclination
99.9516°
RAAN
86.9915°
Arg. of periapsis
344.8712°
True anomaly
83.43214°
Mean anomaly
83.0102°
Eccentric anomaly
83.22114°
Mean motion
3.40159 °/min
Orbital period
105.83 mins
BSTAR
0.00060634
Loading maneuver chart data...
Computing Atmospheric mass density...

Documentation

Showing up to 5 results
|